Santa Clara, CA

8:04 PM PST on February 22, 2017 (GMT -0800)
San Jose International

Weather History for KSJC - April, 2014

Change the Weather History Date:

Tuesday, April 1, 2014

  Actual Average Record
Temperature  
Mean Temperature 50 °F 57 °F  
Max Temperature 57 °F 68 °F 84 °F (2011)
Min Temperature 43 °F 47 °F 29 °F (1896)
Degree Days  
Heating Degree Days 15 8  
Month to date heating degree days 15 8  
Since 1 July heating degree days 1726 1726  
Cooling Degree Days 0 0  
Month to date cooling degree days 0 0  
Year to date cooling degree days 4 4  
Moisture  
Dew Point 43 °F    
Average Humidity 80    
Maximum Humidity 100    
Minimum Humidity 59    
Precipitation  
Precipitation 0.29 in 0.04 in 1.00 in (1958)
Month to date precipitation 0.29 0.04  
Year to date precipitation 4.41 8.39  
Since 1 July precipitation 5.97  
Sea Level Pressure  
Sea Level Pressure 29.91 in    
Wind  
Wind Speed 10 mph (SE)    
Max Wind Speed 23 mph    
Max Gust Speed 32 mph    
Visibility 10 miles    
Events Rain    
T = Trace of Precipitation, MM = Missing Value Source: NWS Daily Summary

Daily Weather History Graph

Daily Weather History Graph

Search for Another Location

Airport or City:

Trip Planner

Search our weather history database for the weather conditions in past years. The results will help you decide how hot, cold, wet, or windy it might be!

Date:

Astronomy

Apr. 01, 2014 Rise Set
Actual Time 6:53 AM PDT 7:30 PM PDT
Civil Twilight 6:26 AM PDT 7:56 PM PDT
Nautical Twilight 5:55 AM PDT 8:27 PM PDT
Astronomical Twilight 5:24 AM PDT 8:59 PM PDT
Moon 8:01 AM PDT (4/1) 9:55 PM PDT (4/1)
Length of Visible Light 13h 29m
Length of Day
12h 37m
Waxing Crescent, 5% of the Moon is Illuminated
Apr 1
Waxing Crescent
Apr 7
First Quarter
Apr 15
Full
Apr 22
Last Quarter
Apr 28
New

Hourly Weather History & Observations

Time (PDT) Temp. Windchill Dew Point Humidity Pressure Visibility Wind Dir Wind Speed Gust Speed Precip Events Conditions
12:53 AM 43.0 °F 37.2 °F 41.0 °F 93% 29.93 in 10.0 mi ESE 10.4 mph - N/A   Clear
1:53 AM 45.0 °F 40.1 °F 41.0 °F 86% 29.94 in 10.0 mi ESE 9.2 mph - 0.00 in Rain Light Rain
2:53 AM 45.0 °F 42.6 °F 43.0 °F 93% 29.94 in 10.0 mi South 4.6 mph - 0.02 in Rain Light Rain
3:53 AM 45.0 °F 40.6 °F 44.1 °F 97% 29.93 in 10.0 mi ENE 8.1 mph - 0.02 in   Mostly Cloudy
4:53 AM 43.0 °F 40.3 °F 42.1 °F 97% 29.92 in 10.0 mi ESE 4.6 mph - N/A   Partly Cloudy
5:53 AM 44.1 °F 38.1 °F 42.1 °F 93% 29.92 in 10.0 mi ESE 11.5 mph - N/A   Scattered Clouds
6:53 AM 44.1 °F 38.6 °F 42.1 °F 93% 29.93 in 10.0 mi ESE 10.4 mph - N/A   Mostly Cloudy
7:53 AM 46.0 °F 40.6 °F 43.0 °F 89% 29.95 in 10.0 mi ESE 11.5 mph - N/A   Mostly Cloudy
8:53 AM 48.0 °F - 44.1 °F 86% 29.96 in 10.0 mi East 12.7 mph - N/A   Mostly Cloudy
9:53 AM 52.0 °F - 45.0 °F 77% 29.96 in 10.0 mi ESE 15.0 mph - N/A   Mostly Cloudy
10:53 AM 54.0 °F - 44.1 °F 69% 29.96 in 10.0 mi ESE 12.7 mph - N/A   Scattered Clouds
11:53 AM 54.0 °F - 44.1 °F 69% 29.94 in 10.0 mi ESE 12.7 mph - N/A   Mostly Cloudy
12:33 PM 51.8 °F - 44.6 °F 76% 29.94 in 10.0 mi SSE 12.7 mph - 0.01 in Rain Light Rain
12:53 PM 54.0 °F - 44.1 °F 69% 29.94 in 10.0 mi SSE 11.5 mph - 0.01 in   Mostly Cloudy
1:53 PM 53.1 °F - 46.0 °F 77% 29.92 in 10.0 mi SE 11.5 mph 23.0 mph 0.01 in Rain Light Rain
2:53 PM 57.0 °F - 42.1 °F 57% 29.89 in 10.0 mi SSE 10.4 mph 20.7 mph 0.00 in   Overcast
3:53 PM 55.9 °F - 41.0 °F 57% 29.86 in 10.0 mi South 15.0 mph 20.7 mph 0.00 in   Mostly Cloudy
4:53 PM 54.0 °F - 42.1 °F 64% 29.85 in 10.0 mi South 12.7 mph 19.6 mph 0.00 in   Overcast
5:53 PM 48.0 °F - 44.1 °F 86% 29.87 in 6.0 mi South 15.0 mph - 0.07 in Rain Rain
6:53 PM 46.9 °F - 43.0 °F 86% 29.88 in 6.0 mi ESE 6.9 mph - 0.15 in Rain Light Rain
7:53 PM 46.0 °F 41.0 °F 42.6 °F 88% 29.87 in 10.0 mi East 10.4 mph - 0.01 in   Overcast
8:53 PM 46.0 °F 42.5 °F 39.7 °F 79% 29.87 in 10.0 mi East 6.9 mph - N/A   Mostly Cloudy
9:53 PM 46.0 °F 41.9 °F 38.8 °F 76% 29.88 in 10.0 mi SE 8.1 mph - 0.00 in   Mostly Cloudy
10:53 PM 45.0 °F 40.6 °F 37.8 °F 76% 29.88 in 10.0 mi ESE 8.1 mph - 0.00 in   Mostly Cloudy
11:53 PM 45.0 °F 40.6 °F 43.0 °F 93% 29.88 in 10.0 mi ESE 8.1 mph - N/A   Mostly Cloudy